Location: Carbonear
(47.7333°N, 53.2500°W)
Time: 21:06:46
(UTC+00:00)

STRAND 1 - Pass Details

Date: 04 December 2022
Orbit: 768 x 779 km, 98.4° (Epoch: 08 February)

Event Time Altitude Azimuth Distance (km) Brightness Sun altitude
Rises 09:31:29 0° 168° (SSE) 3,241 ? -14.9°
Reaches altitude 10° 09:33:47 10° 169° (S) 2,317 ? -14.6°
Maximum altitude 09:38:54 79° 256° (WSW) 794 ? -13.7°
Drops below altitude 10° 09:44:03 10° 344° (NNW) 2,326 ? -12.9°
Sets 09:46:22 0° 345° (NNW) 3,256 ? -12.6°
